QPF
0.00 0.00 0.00 0.00 0.00 0.00 0.00 0.00 0.01 0.01 0.01 0.02 0.01 0.01 0.01 0.01 0.01 0.01 0.01 0.01 0.01 0.01 0.01 0.01 0.01 0.02 0.02 0.03 0.03 0.05 0.05 0.07 0.07 0.08 0.08 0.08 0.08 0.07 0.07 0.09 0.09 0.11 0.14 0.18
0.00 0.00 0.00 0.00 0.00 0.00 0.00 0.00 0.00 0.01 0.01 0.01 0.01 0.00 0.00 0.00 0.00 0.00 0.01 0.01 0.01 0.00 0.00 0.00 0.00 0.01 0.01 0.01 0.01 0.02 0.02 0.03 0.04 0.06 0.04 0.04 0.05 0.05 0.05 0.04 0.05 0.05 0.06 0.08
0.00 0.00 0.00 0.00 0.00 0.00 0.00 0.00 0.00 0.01 0.01 0.01 0.00 0.00 0.00 0.00 0.00 0.00 0.00 0.00 0.00 0.00 0.00 0.00 0.00 0.00 0.00 0.00 0.00 0.00 0.00 0.00 0.01 0.02 0.02 0.02 0.02 0.03 0.03 0.03 0.03 0.03 0.03 0.05
0.00 0.00 0.00 0.00 0.00 0.00 0.00 0.00 0.00 0.00 0.00 0.00 0.00 0.00 0.00 0.00 0.00 0.00 0.00 0.00 0.00 0.00 0.00 0.00 0.00 0.00 0.00 0.00 0.00 0.00 0.00 0.00 0.00 0.00 0.01 0.01 0.00 0.00 0.01 0.01 0.01 0.01 0.02 0.02
0.00 0.00 0.00 0.00 0.00 0.00 0.00 0.00 0.00 0.00 0.00 0.00 0.00 0.00 0.00 0.00 0.00 0.00 0.00 0.00 0.00 0.00 0.00 0.00 0.00 0.00 0.00 0.00 0.00 0.00 0.00 0.00 0.00 0.00 0.00 0.00 0.00 0.00 0.00 0.00 0.00 0.00 0.01 0.01
0.00 0.00 0.00 0.00 0.00 0.00 0.00 0.00 0.00 0.00 0.00 0.00 0.00 0.00 0.00 0.00 0.00 0.00 0.00 0.00 0.00 0.00 0.00 0.00 0.00 0.00 0.00 0.00 0.00 0.00 0.00 0.00 0.00 0.00 0.00 0.00 0.00 0.00 0.00 0.01 0.00 0.00 0.00 0.01
0.00 0.00 0.00 0.00 0.00 0.00 0.00 0.00 0.00 0.00 0.00 0.00 0.00 0.00 0.00 0.00 0.00 0.00 0.00 0.00 0.00 0.00 0.00 0.00 0.00 0.00 0.00 0.00 0.00 0.00 0.00 0.00 0.00 0.00 0.00 0.00 0.00 0.00 0.00 0.00 0.00 0.00 0.00 0.00
0.00 0.00 0.00 0.00 0.00 0.00 0.00 0.00 0.00 0.00 0.00 0.00 0.00 0.00 0.00 0.00 0.00 0.00 0.00 0.00 0.00 0.00 0.00 0.00 0.00 0.00 0.00 0.00 0.00 0.00 0.00 0.00 0.00 0.00 0.00 0.00 0.00 0.00 0.00 0.00 0.00 0.00 0.00 0.00
0.00 0.00 0.00 0.00 0.00 0.00 0.00 0.00 0.00 0.00 0.00 0.00 0.00 0.00 0.00 0.00 0.00 0.00 0.00 0.00 0.00 0.00 0.00 0.00 0.00 0.00 0.00 0.00 0.00 0.00 0.00 0.00 0.00 0.00 0.00 0.00 0.00 0.00 0.00 0.00 0.00 0.00 0.00 0.00
0.00 0.00 0.00 0.00 0.00 0.00 0.00 0.00 0.00 0.00 0.00 0.00 0.00 0.00 0.00 0.00 0.00 0.00 0.00 0.00 0.00 0.00 0.00 0.00 0.00 0.00 0.00 0.00 0.00 0.00 0.00 0.00 0.00 0.00 0.00 0.00 0.00 0.00 0.00 0.00 0.00 0.00 0.00 0.00
0.00 0.00 0.00 0.00 0.00 0.00 0.00 0.00 0.00 0.00 0.00 0.00 0.00 0.00 0.00 0.00 0.00 0.00 0.00 0.00 0.00 0.00 0.00 0.00 0.00 0.00 0.00 0.00 0.00 0.00 0.00 0.00 0.00 0.00 0.00 0.00 0.00 0.00 0.00 0.00 0.00 0.00 0.00 0.00
0.00 0.00 0.00 0.00 0.00 0.00 0.00 0.00 0.00 0.00 0.00 0.00 0.00 0.00 0.00 0.00 0.00 0.00 0.00 0.00 0.00 0.00 0.00 0.00 0.00 0.00 0.00 0.00 0.00 0.00 0.00 0.00 0.00 0.00 0.00 0.00 0.00 0.00 0.00 0.00 0.00 0.00 0.00 0.00
0.00 0.00 0.00 0.00 0.00 0.00 0.00 0.00 0.00 0.00 0.00 0.00 0.00 0.00 0.00 0.00 0.00 0.00 0.00 0.00 0.00 0.00 0.00 0.00 0.00 0.00 0.00 0.00 0.00 0.00 0.00 0.00 0.00 0.00 0.00 0.00 0.00 0.00 0.00 0.00 0.00 0.00 0.00 0.00
0.00 0.00 0.00 0.00 0.00 0.00 0.00 0.00 0.00 0.00 0.00 0.00 0.00 0.00 0.00 0.00 0.00 0.00 0.00 0.00 0.00 0.00 0.00 0.00 0.00 0.00 0.00 0.00 0.00 0.00 0.00 0.00 0.00 0.00 0.00 0.00 0.00 0.00 0.00 0.00 0.00 0.00 0.00 0.00
0.00 0.00 0.00 0.00 0.00 0.00 0.00 0.00 0.00 0.00 0.00 0.00 0.00 0.00 0.00 0.00 0.00 0.00 0.00 0.00 0.00 0.00 0.00 0.00 0.00 0.00 0.00 0.00 0.00 0.00 0.00 0.00 0.00 0.00 0.00 0.00 0.00 0.00 0.00 0.00 0.00 0.00 0.00 0.00
0.00 0.00 0.00 0.00 0.00 0.00 0.00 0.00 0.00 0.00 0.00 0.00 0.00 0.00 0.00 0.00 0.00 0.00 0.00 0.00 0.00 0.00 0.00 0.00 0.00 0.00 0.00 0.00 0.00 0.00 0.00 0.00 0.00 0.00 0.00 0.00 0.00 0.00 0.00 0.00 0.00 0.00 0.00 0.00
0.00 0.00 0.00 0.00 0.00 0.00 0.00 0.00 0.00 0.00 0.00 0.00 0.00 0.00 0.00 0.00 0.00 0.00 0.00 0.00 0.00 0.00 0.00 0.00 0.00 0.00 0.00 0.00 0.00 0.00 0.00 0.00 0.00 0.00 0.00 0.00 0.00 0.00 0.00 0.00 0.00 0.00 0.00 0.00
0.00 0.00 0.00 0.00 0.00 0.00 0.00 0.00 0.00 0.00 0.00 0.00 0.00 0.00 0.00 0.00 0.00 0.00 0.00 0.00 0.00 0.00 0.00 0.00 0.00 0.00 0.00 0.00 0.00 0.00 0.00 0.00 0.00 0.00 0.00 0.00 0.00 0.00 0.00 0.00 0.00 0.00 0.00 0.00
0.00 0.00 0.00 0.00 0.00 0.00 0.00 0.00 0.00 0.00 0.00 0.00 0.00 0.00 0.00 0.00 0.00 0.00 0.00 0.00 0.00 0.00 0.00 0.00 0.00 0.00 0.00 0.00 0.00 0.00 0.00 0.00 0.00 0.00 0.00 0.00 0.00 0.00 0.00 0.00 0.00 0.00 0.00 0.00
0.00 0.00 0.00 0.00 0.00 0.00 0.00 0.00 0.00 0.00 0.00 0.00 0.00 0.00 0.00 0.00 0.00 0.00 0.00 0.00 0.00 0.00 0.00 0.00 0.00 0.00 0.00 0.00 0.00 0.00 0.00 0.00 0.00 0.00 0.00 0.00 0.00 0.00 0.00 0.00 0.00 0.00 0.00 0.00
0.00 0.00 0.00 0.00 0.00 0.00 0.00 0.00 0.00 0.00 0.00 0.00 0.00 0.00 0.00 0.00 0.00 0.00 0.00 0.00 0.00 0.00 0.00 0.00 0.00 0.00 0.00 0.00 0.00 0.00 0.00 0.00 0.00 0.00 0.00 0.00 0.00 0.00 0.00 0.00 0.00 0.00 0.00 0.00
0.00 0.00 0.00 0.00 0.00 0.00 0.00 0.00 0.00 0.00 0.00 0.00 0.00 0.00 0.00 0.00 0.00 0.00 0.00 0.00 0.00 0.00 0.00 0.00 0.00 0.00 0.00 0.00 0.00 0.00 0.00 0.00 0.00 0.00 0.00 0.00 0.00 0.00 0.00 0.00 0.00 0.00 0.00 0.00
0.00 0.00 0.00 0.00 0.00 0.00 0.00 0.00 0.00 0.00 0.00 0.00 0.00 0.00 0.00 0.00 0.00 0.00 0.00 0.00 0.00 0.00 0.00 0.00 0.00 0.00 0.00 0.00 0.00 0.00 0.00 0.00 0.00 0.00 0.00 0.00 0.00 0.00 0.00 0.00 0.00 0.00 0.00 0.00
0.00 0.00 0.00 0.00 0.00 0.00 0.00 0.00 0.00 0.00 0.00 0.00 0.00 0.00 0.00 0.00 0.00 0.00 0.00 0.00 0.00 0.00 0.00 0.00 0.00 0.00 0.00 0.00 0.00 0.00 0.00 0.00 0.00 0.00 0.00 0.00 0.00 0.00 0.00 0.00 0.00 0.00 0.00 0.00
0.00 0.00 0.00 0.00 0.00 0.00 0.00 0.00 0.00 0.00 0.00 0.00 0.00 0.00 0.00 0.00 0.00 0.00 0.00 0.00 0.00 0.00 0.00 0.00 0.00 0.00 0.00 0.00 0.00 0.00 0.00 0.00 0.00 0.00 0.00 0.00 0.00 0.00 0.00 0.00 0.00 0.00 0.00 0.00
0.00 0.00 0.00 0.00 0.00 0.00 0.00 0.00 0.00 0.00 0.00 0.00 0.00 0.00 0.00 0.00 0.00 0.00 0.00 0.00 0.00 0.00 0.00 0.00 0.00 0.00 0.00 0.00 0.00 0.00 0.00 0.00 0.00 0.00 0.00 0.00 0.00 0.00 0.00 0.00 0.00 0.00 0.00 0.00
0.00 0.00 0.00 0.00 0.00 0.00 0.00 0.00 0.00 0.00 0.00 0.00 0.00 0.00 0.00 0.00 0.00 0.00 0.00 0.00 0.00 0.00 0.00 0.00 0.00 0.00 0.00 0.00 0.00 0.00 0.00 0.00 0.00 0.00 0.00 0.00 0.00 0.00 0.00 0.00 0.00 0.00 0.00 0.00
MSLP
1024.03 1024.52 1025.03 1025.54 1026.02 1026.44 1026.75 1026.92 1026.92 1026.74 1026.39 1025.88 1025.26 1024.56 1023.85 1023.15 1022.49 1021.90 1021.36 1020.88 1020.44 1020.03 1019.63 1019.26 1018.89 1018.54 1018.20 1017.89 1017.59 1017.30 1017.00 1016.70 1016.37 1016.02 1015.66 1015.29 1014.94 1014.62 1014.35 1014.15 1014.01 1013.92 1013.87 1013.85
1024.19 1024.60 1024.99 1025.36 1025.69 1025.95 1026.11 1026.15 1026.07 1025.85 1025.51 1025.06 1024.54 1023.97 1023.38 1022.81 1022.27 1021.77 1021.30 1020.88 1020.48 1020.11 1019.76 1019.43 1019.12 1018.84 1018.59 1018.35 1018.13 1017.90 1017.66 1017.39 1017.07 1016.73 1016.35 1015.96 1015.59 1015.24 1014.95 1014.71 1014.54 1014.41 1014.33 1014.27
1024.40 1024.69 1024.94 1025.14 1025.30 1025.41 1025.44 1025.39 1025.26 1025.04 1024.75 1024.39 1023.99 1023.55 1023.10 1022.65 1022.21 1021.79 1021.38 1020.98 1020.61 1020.26 1019.93 1019.63 1019.38 1019.15 1018.96 1018.79 1018.63 1018.46 1018.25 1018.01 1017.71 1017.37 1016.99 1016.60 1016.22 1015.87 1015.56 1015.31 1015.13 1014.99 1014.88 1014.78
1024.64 1024.77 1024.85 1024.90 1024.90 1024.87 1024.79 1024.69 1024.54 1024.36 1024.14 1023.89 1023.61 1023.31 1022.99 1022.65 1022.29 1021.92 1021.54 1021.16 1020.78 1020.43 1020.11 1019.83 1019.60 1019.41 1019.27 1019.15 1019.04 1018.91 1018.74 1018.53 1018.25 1017.93 1017.56 1017.18 1016.81 1016.47 1016.18 1015.94 1015.75 1015.61 1015.48 1015.37
1024.80 1024.79 1024.71 1024.60 1024.47 1024.32 1024.18 1024.04 1023.91 1023.78 1023.64 1023.51 1023.35 1023.17 1022.96 1022.71 1022.41 1022.08 1021.71 1021.32 1020.93 1020.56 1020.23 1019.95 1019.74 1019.58 1019.47 1019.39 1019.33 1019.24 1019.11 1018.93 1018.69 1018.40 1018.07 1017.72 1017.37 1017.06 1016.79 1016.57 1016.40 1016.25 1016.13 1015.99
1024.80 1024.65 1024.44 1024.21 1023.98 1023.76 1023.58 1023.43 1023.33 1023.26 1023.21 1023.18 1023.13 1023.06 1022.93 1022.75 1022.50 1022.19 1021.82 1021.42 1021.01 1020.62 1020.27 1019.99 1019.78 1019.64 1019.56 1019.52 1019.49 1019.45 1019.38 1019.24 1019.05 1018.81 1018.52 1018.22 1017.92 1017.64 1017.41 1017.21 1017.05 1016.91 1016.78 1016.63
1024.55 1024.30 1024.01 1023.70 1023.41 1023.15 1022.96 1022.83 1022.77 1022.76 1022.80 1022.85 1022.89 1022.90 1022.84 1022.71 1022.50 1022.20 1021.83 1021.42 1021.00 1020.59 1020.23 1019.94 1019.73 1019.61 1019.56 1019.55 1019.57 1019.58 1019.56 1019.49 1019.36 1019.18 1018.95 1018.71 1018.46 1018.23 1018.03 1017.86 1017.71 1017.58 1017.44 1017.27
1024.00 1023.71 1023.37 1023.04 1022.74 1022.49 1022.32 1022.23 1022.22 1022.27 1022.37 1022.49 1022.60 1022.67 1022.66 1022.57 1022.39 1022.11 1021.75 1021.34 1020.91 1020.50 1020.13 1019.85 1019.65 1019.54 1019.51 1019.54 1019.61 1019.67 1019.71 1019.71 1019.65 1019.54 1019.39 1019.21 1019.02 1018.84 1018.67 1018.52 1018.38 1018.24 1018.09 1017.91
1023.19 1022.89 1022.58 1022.27 1022.00 1021.81 1021.68 1021.64 1021.68 1021.79 1021.95 1022.11 1022.27 1022.38 1022.42 1022.36 1022.20 1021.95 1021.61 1021.21 1020.80 1020.40 1020.04 1019.76 1019.58 1019.48 1019.47 1019.54 1019.64 1019.76 1019.86 1019.92 1019.95 1019.91 1019.83 1019.72 1019.59 1019.45 1019.31 1019.17 1019.03 1018.89 1018.72 1018.53
1022.19 1021.93 1021.67 1021.44 1021.25 1021.13 1021.08 1021.11 1021.20 1021.36 1021.55 1021.75 1021.94 1022.08 1022.14 1022.12 1021.99 1021.77 1021.47 1021.11 1020.73 1020.35 1020.02 1019.75 1019.57 1019.49 1019.49 1019.58 1019.71 1019.86 1020.02 1020.15 1020.23 1020.27 1020.27 1020.22 1020.13 1020.03 1019.91 1019.78 1019.64 1019.49 1019.32 1019.12
1021.10 1020.92 1020.75 1020.62 1020.53 1020.51 1020.55 1020.65 1020.80 1021.00 1021.22 1021.44 1021.65 1021.80 1021.89 1021.90 1021.81 1021.64 1021.39 1021.08 1020.74 1020.39 1020.08 1019.83 1019.66 1019.58 1019.58 1019.67 1019.81 1019.98 1020.17 1020.35 1020.49 1020.59 1020.64 1020.65 1020.61 1020.54 1020.43 1020.31 1020.18 1020.02 1019.84 1019.65
1020.04 1019.94 1019.88 1019.87 1019.91 1020.00 1020.13 1020.31 1020.52 1020.75 1020.99 1021.22 1021.43 1021.59 1021.70 1021.74 1021.70 1021.57 1021.38 1021.12 1020.83 1020.53 1020.25 1020.00 1019.83 1019.73 1019.71 1019.78 1019.91 1020.08 1020.28 1020.48 1020.66 1020.81 1020.91 1020.96 1020.96 1020.91 1020.83 1020.72 1020.59 1020.44 1020.27 1020.10
1019.08 1019.07 1019.12 1019.23 1019.39 1019.59 1019.82 1020.07 1020.33 1020.58 1020.83 1021.07 1021.27 1021.44 1021.57 1021.63 1021.63 1021.56 1021.42 1021.22 1020.98 1020.71 1020.45 1020.22 1020.03 1019.90 1019.85 1019.87 1019.97 1020.12 1020.31 1020.51 1020.71 1020.89 1021.02 1021.10 1021.14 1021.12 1021.06 1020.97 1020.86 1020.72 1020.58 1020.44
1018.24 1018.31 1018.47 1018.70 1018.98 1019.28 1019.60 1019.91 1020.20 1020.48 1020.73 1020.96 1021.16 1021.32 1021.45 1021.54 1021.57 1021.55 1021.46 1021.32 1021.12 1020.89 1020.64 1020.40 1020.19 1020.03 1019.93 1019.91 1019.95 1020.07 1020.23 1020.42 1020.62 1020.80 1020.96 1021.07 1021.14 1021.15 1021.12 1021.05 1020.96 1020.86 1020.76 1020.67
1017.51 1017.67 1017.92 1018.25 1018.63 1019.02 1019.41 1019.77 1020.09 1020.38 1020.63 1020.84 1021.03 1021.19 1021.32 1021.42 1021.48 1021.49 1021.45 1021.35 1021.20 1021.00 1020.76 1020.52 1020.28 1020.08 1019.93 1019.85 1019.84 1019.91 1020.03 1020.20 1020.39 1020.58 1020.75 1020.89 1020.98 1021.02 1021.02 1020.99 1020.93 1020.87 1020.81 1020.77
1016.88 1017.10 1017.43 1017.84 1018.30 1018.76 1019.20 1019.60 1019.95 1020.23 1020.47 1020.67 1020.84 1020.99 1021.12 1021.23 1021.31 1021.35 1021.35 1021.29 1021.17 1021.00 1020.78 1020.53 1020.28 1020.04 1019.85 1019.72 1019.66 1019.67 1019.75 1019.89 1020.07 1020.25 1020.44 1020.59 1020.71 1020.78 1020.81 1020.81 1020.79 1020.77 1020.76 1020.77
1016.31 1016.58 1016.97 1017.45 1017.96 1018.47 1018.95 1019.37 1019.73 1020.01 1020.24 1020.42 1020.57 1020.71 1020.83 1020.94 1021.04 1021.11 1021.14 1021.12 1021.03 1020.89 1020.68 1020.44 1020.19 1019.93 1019.70 1019.53 1019.43 1019.40 1019.45 1019.56 1019.71 1019.90 1020.08 1020.25 1020.39 1020.48 1020.54 1020.57 1020.59 1020.60 1020.63 1020.68
1015.80 1016.11 1016.54 1017.06 1017.60 1018.14 1018.64 1019.07 1019.42 1019.70 1019.91 1020.08 1020.22 1020.34 1020.47 1020.58 1020.69 1020.79 1020.85 1020.86 1020.81 1020.70 1020.52 1020.30 1020.04 1019.79 1019.55 1019.35 1019.22 1019.16 1019.17 1019.25 1019.39 1019.56 1019.74 1019.91 1020.06 1020.17 1020.25 1020.31 1020.35 1020.39 1020.45 1020.54
1015.38 1015.71 1016.16 1016.68 1017.24 1017.78 1018.27 1018.69 1019.03 1019.30 1019.51 1019.67 1019.79 1019.92 1020.04 1020.17 1020.30 1020.41 1020.50 1020.55 1020.54 1020.47 1020.33 1020.13 1019.90 1019.65 1019.41 1019.21 1019.06 1018.97 1018.96 1019.01 1019.13 1019.27 1019.44 1019.61 1019.76 1019.88 1019.97 1020.04 1020.10 1020.16 1020.23 1020.35
1015.08 1015.41 1015.85 1016.35 1016.89 1017.40 1017.87 1018.27 1018.60 1018.85 1019.05 1019.20 1019.33 1019.46 1019.59 1019.73 1019.88 1020.03 1020.15 1020.24 1020.27 1020.23 1020.14 1019.98 1019.78 1019.55 1019.32 1019.11 1018.95 1018.85 1018.81 1018.83 1018.92 1019.04 1019.18 1019.33 1019.47 1019.59 1019.69 1019.76 1019.83 1019.90 1019.99 1020.11
1014.96 1015.26 1015.66 1016.12 1016.59 1017.06 1017.48 1017.85 1018.15 1018.38 1018.56 1018.72 1018.85 1018.99 1019.14 1019.30 1019.47 1019.65 1019.80 1019.93 1020.00 1020.01 1019.95 1019.84 1019.67 1019.46 1019.25 1019.05 1018.88 1018.75 1018.69 1018.68 1018.72 1018.80 1018.92 1019.04 1019.16 1019.27 1019.36 1019.45 1019.52 1019.60 1019.70 1019.83
1015.05 1015.29 1015.61 1015.99 1016.39 1016.78 1017.13 1017.44 1017.70 1017.91 1018.08 1018.23 1018.37 1018.52 1018.69 1018.87 1019.07 1019.27 1019.45 1019.61 1019.72 1019.76 1019.75 1019.67 1019.53 1019.35 1019.15 1018.95 1018.77 1018.63 1018.53 1018.48 1018.48 1018.53 1018.60 1018.69 1018.79 1018.88 1018.97 1019.06 1019.14 1019.23 1019.35 1019.49
1015.33 1015.49 1015.72 1015.99 1016.29 1016.58 1016.85 1017.09 1017.29 1017.47 1017.62 1017.76 1017.90 1018.06 1018.23 1018.43 1018.65 1018.86 1019.07 1019.25 1019.38 1019.46 1019.47 1019.42 1019.31 1019.15 1018.97 1018.77 1018.58 1018.42 1018.29 1018.20 1018.16 1018.16 1018.19 1018.25 1018.32 1018.40 1018.48 1018.57 1018.67 1018.78 1018.92 1019.08
1015.78 1015.84 1015.95 1016.11 1016.28 1016.47 1016.64 1016.80 1016.94 1017.07 1017.18 1017.30 1017.44 1017.59 1017.76 1017.96 1018.18 1018.40 1018.61 1018.80 1018.95 1019.04 1019.07 1019.04 1018.96 1018.82 1018.65 1018.45 1018.26 1018.08 1017.93 1017.81 1017.73 1017.69 1017.68 1017.71 1017.75 1017.82 1017.91 1018.00 1018.12 1018.25 1018.41 1018.59
1016.30 1016.27 1016.27 1016.31 1016.36 1016.43 1016.50 1016.57 1016.64 1016.71 1016.79 1016.87 1016.98 1017.11 1017.27 1017.45 1017.65 1017.86 1018.06 1018.24 1018.39 1018.48 1018.53 1018.51 1018.45 1018.33 1018.17 1017.99 1017.80 1017.62 1017.45 1017.31 1017.21 1017.14 1017.10 1017.10 1017.13 1017.19 1017.27 1017.37 1017.50 1017.65 1017.83 1018.04
1016.82 1016.70 1016.60 1016.53 1016.48 1016.45 1016.43 1016.41 1016.41 1016.41 1016.43 1016.48 1016.54 1016.63 1016.75 1016.90 1017.06 1017.24 1017.41 1017.57 1017.70 1017.79 1017.84 1017.84 1017.79 1017.70 1017.57 1017.41 1017.24 1017.07 1016.91 1016.76 1016.65 1016.56 1016.51 1016.49 1016.50 1016.55 1016.62 1016.72 1016.86 1017.02 1017.22 1017.44
1017.22 1017.04 1016.88 1016.73 1016.60 1016.49 1016.39 1016.30 1016.23 1016.17 1016.14 1016.12 1016.14 1016.17 1016.24 1016.33 1016.44 1016.56 1016.69 1016.81 1016.92 1017.00 1017.05 1017.06 1017.03 1016.97 1016.88 1016.76 1016.63 1016.48 1016.35 1016.22 1016.11 1016.02 1015.96 1015.93 1015.93 1015.96 1016.02 1016.11 1016.24 1016.40 1016.59 1016.82
Thickness
5666 5667 5662 5655 5650 5646 5636 5626 5614 5615 5615 5620 5623 5623 5624 5625 5626 5626 5627 5629 5630 5630 5631 5632 5633 5634 5635 5636 5638 5640 5642 5642 5643 5645 5646 5648 5649 5650 5652 5653 5654 5654 5655 5655
5666 5668 5663 5655 5652 5648 5643 5637 5630 5626 5624 5632 5633 5631 5630 5630 5630 5629 5630 5631 5632 5633 5634 5634 5633 5634 5634 5635 5636 5638 5638 5639 5640 5641 5642 5643 5644 5645 5646 5646 5647 5648 5648 5648
5655 5664 5660 5646 5654 5651 5648 5646 5638 5630 5633 5639 5637 5636 5636 5635 5634 5633 5634 5634 5634 5635 5635 5635 5636 5636 5635 5635 5636 5636 5636 5636 5636 5637 5637 5637 5638 5639 5640 5640 5640 5640 5640 5641
5657 5657 5645 5656 5669 5665 5656 5653 5651 5648 5647 5646 5644 5643 5644 5643 5640 5638 5639 5638 5638 5638 5639 5639 5639 5638 5637 5636 5635 5635 5634 5633 5633 5633 5633 5633 5634 5634 5635 5635 5635 5634 5634 5634
5654 5652 5655 5662 5670 5667 5657 5653 5659 5654 5653 5652 5650 5644 5642 5648 5648 5646 5645 5644 5643 5643 5643 5642 5641 5640 5639 5637 5636 5634 5633 5632 5631 5631 5630 5630 5630 5630 5631 5630 5630 5629 5628 5627
5662 5659 5654 5669 5679 5679 5666 5651 5664 5662 5657 5654 5649 5634 5637 5651 5653 5652 5651 5649 5649 5648 5647 5645 5645 5644 5641 5638 5637 5635 5634 5633 5631 5630 5629 5628 5627 5627 5627 5626 5625 5624 5623 5622
5667 5664 5668 5685 5687 5679 5651 5656 5670 5667 5663 5658 5650 5646 5651 5657 5657 5656 5655 5655 5654 5652 5650 5649 5649 5647 5644 5641 5639 5638 5635 5633 5631 5630 5628 5626 5625 5624 5623 5622 5621 5619 5617 5616
5667 5665 5672 5694 5686 5674 5673 5680 5677 5672 5668 5665 5662 5662 5662 5660 5659 5659 5657 5658 5657 5654 5654 5654 5653 5651 5648 5645 5644 5641 5637 5633 5631 5629 5628 5625 5622 5620 5619 5617 5616 5613 5612 5610
5686 5688 5702 5701 5699 5697 5691 5684 5680 5676 5674 5672 5668 5665 5664 5663 5662 5661 5661 5660 5660 5658 5657 5658 5657 5655 5652 5651 5648 5644 5638 5634 5631 5628 5625 5623 5620 5617 5615 5613 5612 5609 5607 5605
5700 5704 5708 5707 5707 5703 5699 5693 5688 5683 5680 5676 5671 5669 5667 5664 5663 5663 5663 5662 5662 5661 5659 5659 5660 5659 5657 5655 5652 5646 5640 5635 5631 5628 5624 5621 5618 5615 5612 5610 5608 5606 5604 5601
5704 5709 5709 5709 5708 5705 5702 5697 5692 5688 5684 5679 5675 5672 5670 5666 5666 5665 5665 5664 5664 5662 5661 5662 5663 5662 5661 5658 5654 5648 5643 5638 5633 5629 5625 5621 5617 5614 5611 5609 5607 5605 5602 5600
5707 5714 5709 5710 5713 5710 5704 5698 5694 5689 5685 5683 5679 5675 5673 5669 5668 5667 5667 5666 5665 5665 5664 5665 5665 5664 5663 5661 5657 5651 5646 5641 5636 5632 5627 5623 5619 5615 5613 5610 5609 5607 5604 5602
5731 5729 5723 5723 5718 5714 5708 5703 5698 5693 5689 5684 5682 5679 5676 5672 5671 5670 5669 5668 5668 5667 5667 5667 5666 5665 5664 5662 5659 5655 5649 5645 5640 5636 5631 5626 5622 5618 5615 5612 5610 5608 5606 5604
5737 5732 5725 5721 5717 5715 5711 5707 5702 5696 5692 5688 5684 5681 5677 5675 5672 5671 5670 5670 5670 5670 5669 5668 5667 5666 5666 5664 5661 5657 5653 5649 5645 5640 5636 5632 5627 5623 5619 5615 5611 5608 5607 5605
5735 5734 5728 5725 5719 5715 5711 5706 5699 5694 5691 5688 5685 5682 5679 5675 5673 5672 5672 5672 5671 5670 5670 5669 5668 5667 5667 5666 5663 5659 5656 5651 5648 5644 5640 5637 5633 5628 5623 5619 5614 5611 5608 5606
5733 5730 5726 5721 5716 5712 5708 5704 5699 5695 5692 5689 5685 5683 5681 5678 5676 5674 5674 5673 5670 5669 5669 5669 5668 5668 5668 5666 5664 5661 5658 5656 5652 5647 5644 5640 5636 5632 5627 5622 5618 5614 5611 5609
5726 5722 5719 5716 5714 5711 5707 5705 5701 5697 5693 5690 5687 5685 5682 5679 5676 5674 5674 5673 5672 5671 5670 5669 5668 5669 5669 5667 5665 5662 5659 5657 5655 5651 5647 5643 5640 5636 5631 5627 5622 5618 5615 5613
5733 5730 5725 5721 5716 5711 5707 5705 5702 5698 5694 5692 5689 5685 5681 5678 5675 5674 5673 5673 5671 5670 5670 5669 5669 5669 5669 5668 5666 5664 5661 5658 5656 5653 5650 5647 5643 5640 5636 5632 5628 5624 5620 5617
5729 5726 5723 5720 5717 5712 5707 5704 5701 5699 5696 5693 5688 5684 5682 5679 5676 5674 5673 5671 5670 5668 5669 5669 5669 5669 5668 5668 5667 5665 5662 5660 5658 5656 5653 5651 5647 5644 5640 5637 5633 5629 5625 5621
5724 5723 5720 5717 5715 5711 5707 5704 5701 5697 5695 5691 5687 5683 5680 5678 5676 5674 5672 5670 5669 5669 5670 5669 5669 5668 5668 5667 5666 5665 5663 5662 5660 5658 5655 5653 5650 5647 5645 5642 5638 5634 5631 5627
5716 5716 5715 5712 5710 5708 5706 5703 5698 5694 5692 5689 5685 5681 5679 5677 5675 5673 5669 5667 5669 5670 5669 5669 5668 5667 5666 5666 5665 5664 5663 5662 5661 5659 5657 5655 5653 5651 5648 5646 5643 5640 5636 5632
5707 5706 5706 5705 5704 5702 5701 5698 5696 5692 5688 5685 5683 5680 5676 5674 5672 5670 5669 5668 5669 5670 5667 5666 5666 5666 5666 5665 5664 5663 5663 5662 5662 5661 5659 5657 5655 5653 5651 5650 5647 5644 5641 5638
5691 5693 5695 5695 5694 5694 5693 5691 5690 5687 5684 5681 5679 5676 5673 5671 5669 5666 5665 5667 5667 5668 5666 5665 5665 5665 5665 5663 5662 5662 5662 5662 5661 5661 5660 5659 5658 5656 5654 5653 5651 5648 5645 5642
5675 5678 5680 5682 5683 5682 5681 5681 5681 5680 5679 5678 5676 5674 5670 5667 5664 5665 5665 5667 5666 5665 5663 5663 5663 5663 5663 5661 5660 5660 5661 5661 5661 5661 5661 5660 5659 5657 5656 5654 5652 5650 5648 5645
5657 5660 5663 5665 5666 5668 5669 5670 5670 5670 5669 5668 5668 5667 5666 5665 5664 5663 5662 5662 5662 5661 5659 5660 5661 5661 5660 5658 5658 5658 5659 5660 5660 5660 5660 5659 5658 5657 5656 5655 5654 5652 5649 5647
5638 5640 5644 5648 5651 5653 5655 5656 5657 5657 5657 5657 5658 5659 5659 5659 5659 5658 5657 5657 5657 5656 5655 5654 5655 5655 5655 5655 5655 5656 5657 5658 5658 5658 5658 5658 5657 5656 5656 5655 5654 5652 5650 5648
5619 5622 5626 5630 5634 5637 5639 5641 5643 5645 5647 5648 5649 5650 5651 5651 5651 5650 5650 5650 5649 5649 5649 5649 5649 5650 5650 5650 5651 5652 5653 5654 5655 5655 5656 5655 5655 5655 5654 5654 5653 5652 5650 5648